Flag Weather past 2 weeks in Varel, Lower Saxony, Germany

Now
36 °F

Chilly.


Feels Like: 26 °F
Forecast: 31 / 39 °F
Wind: 16 mph from Southeast

Location: Wittmundhaven

Current Time: Nov 28, 2014 at 12:42:34 AM

Latest Report: Nov 27, 2014 at 11:20 PM


Visibility: 4 mi

Pressure: 29.86 "Hg

Humidity: 87%

Dew point: 32 °F

Location of VarelLocation

Historic Weather in Varel — Graph

°F

Varel temperature yesterday

Maximum temperature yesterday: 39 °F (at 12:20 PM)
Minimum temperature yesterday: 36 °F (at 2:20 AM)
Average temperature yesterday: 37 °F

Past Weeks' High & Low Weather Summary

 TemperatureHumidityPressure
High54 °F (Nov 14, 3:20 PM)100% (Nov 12, 11:20 PM)30.39 "Hg (Nov 12, 11:20 PM)
Low30 °F (Nov 21, 3:20 AM)71% (Nov 20, 12:20 PM)29.53 "Hg (Nov 16, 12:20 PM)
Average44 °F91%30.00 "Hg
* Reported Nov 12 11:20 PM — Nov 27 11:20 PM, Varel, Weather by CustomWeather, © 2014

Note: Actual official high and low records may vary slightly from our data, if they occured in-between our weather recording intervals... More about our weather records

Advertising

Varel weather history for previous 24 hours

 ConditionsComfort  
Time TempWeatherWind HumidityBarometerVisibility
11:20 PM
Nov 27
36 °FChilly.16 mph87%29.86 "Hg4 mi
10:20 PM36 °FChilly.17 mph87%29.86 "Hg4 mi
9:20 PM36 °FChilly.15 mph87%29.86 "Hg4 mi
8:20 PM36 °FChilly.14 mph87%29.86 "Hg4 mi
7:20 PM36 °FChilly.17 mph87%29.86 "Hg4 mi
6:20 PM37 °FChilly.16 mph81%29.86 "Hg4 mi
5:20 PM37 °FChilly.15 mph81%29.86 "Hg4 mi
5:01 PM37 °FPassing clouds.15 mph81%29.83 "Hg6 mi
4:20 PM39 °FPassing clouds.14 mph81%29.83 "Hg6 mi
3:20 PM39 °FPartly sunny.15 mph81%29.83 "HgN/A
2:20 PM39 °FBroken clouds.15 mph81%29.83 "HgN/A
1:20 PM39 °FPartly sunny.15 mph81%29.86 "HgN/A
12:20 PM39 °FPartly sunny.12 mph81%29.86 "Hg5 mi
11:20 AM37 °FPartly sunny.15 mph81%29.86 "Hg4 mi
10:20 AM37 °FPartly sunny.14 mph81%29.86 "Hg4 mi
9:20 AM37 °FPartly sunny.14 mph81%29.89 "Hg4 mi
8:20 AM37 °FPartly sunny.15 mph81%29.89 "Hg4 mi
7:20 AM36 °FPassing clouds.13 mph87%29.89 "HgN/A
6:20 AM36 °FPartly cloudy.12 mph87%29.89 "HgN/A
5:20 AM36 °FPartly cloudy.13 mph87%29.89 "HgN/A
4:20 AM36 °FChilly.16 mph87%29.89 "Hg4 mi
3:20 AM36 °FChilly.15 mph87%29.92 "Hg4 mi
2:20 AM36 °FChilly.14 mph93%29.92 "Hg4 mi
1:20 AM37 °FChilly.12 mph87%29.95 "Hg4 mi
12:20 AM37 °FChilly.15 mph87%29.95 "Hg4 mi
Weather by CustomWeather, © 2014

See weather overviewHow to use our weather pages